Regional Weather Roundup
Issued by NWS

Home | Current Version | Previous Version | Graphics & Text | Print | Product List | Glossary On
Versions: 1 2 3 4 5 6 7 8 9 10 11 12 13 14 15 16 17 18 19 20 21 22 23 24 25 26 27 28 29 30 31 32 33 34 35 36 37 38 39 40 41 42 43 44 45 46 47 48 49 50
000
ASUS43 KDTX 270301
RWRMI
MICHIGAN HOURLY REGIONAL WEATHER ROUNDUP
NATIONAL WEATHER SERVICE DETROIT/PONTIAC MI
1100 PM EDT FRI AUG 26 2016

NOTE: "FAIR" INDICATES FEW OR NO CLOUDS BELOW 12,000 FEET WITH NO
SIGNIFICANT WEATHER AND/OR OBSTRUCTION TO VISIBILITY.

MIZ047>049-052>055-059>063-066>070-074>076-081>083-270400-
SOUTHEAST LOWER MICHIGAN

CITY           SKY/WX    TMP DP  RH WIND       PRES   REMARKS
ADRIAN         MOCLDY    70  67  90 NW3       30.17R
ALMA           CLEAR     63  62  94 CALM      30.17S
ANN ARBOR      PTCLDY    66  65  96 CALM      30.16R
BAD AXE        CLOUDY    66  65  97 CALM      30.17R
CARO           CLEAR     63  62  98 CALM      30.16R
DETROIT CITY   MOCLDY    74  64  71 CALM      30.16R
DETROIT        CLOUDY    75  65  70 CALM      30.16R
FLINT          PTCLDY    68  62  81 S3        30.17R
GROSSE ILE     PTCLDY    74  68  82 CALM      30.15S
HILLSDALE      CLOUDY    68  65  91 CALM      30.18R
HOWELL         MOCLDY    69  64  83 CALM      30.17S

CITY           SKY/WX    TMP DP  RH WIND       PRES   REMARKS
JACKSON        PTCLDY    69  67  93 CALM      30.17S
LAMBERTVILLE   CLOUDY    70  66  86 CALM      30.16S
LANSING        PTCLDY    68  62  81 CALM      30.18R
LAPEER         FAIR      64  63  96 CALM      30.18R
MASON          PTCLDY    67  64  90 CALM      30.17S
MONROE         CLOUDY    68  67  97 CALM      30.15S
MT. CLEMENS    MOCLDY    70  67  89 CALM      30.14R
PONTIAC        CLOUDY    69  63  81 CALM      30.16R
PORT HURON     PTCLDY    63  63 100 CALM      30.17R FOG
TRI CITIES     CLEAR     68  61  78 W5        30.17R
MIDLAND        FAIR      63  62  96 CALM      30.15S
TROY           CLOUDY    76  60  58 CALM      30.18S
SAGINAW HB     CLEAR     66  61  82 W3        30.15S
$$
MIZ043>046-050>051-056>058-064>065-071>073-077>080-270400-
SOUTHWEST LOWER MICHIGAN

CITY           SKY/WX    TMP DP  RH WIND       PRES   REMARKS
BATTLE CREEK   CLOUDY    69  64  84 NE5       30.17R
BENTON HARBOR  CLOUDY    68  60  75 CALM      30.14F
BIG RAPIDS     CLEAR     61  58  92 CALM      30.18R
COLDWATER      MOCLDY    70  69  96 CALM      30.16S
FREMONT        FAIR      61  59  94 CALM      30.18S
HOLLAND        PTCLDY    65  59  81 N3        30.16F
GRAND RAPIDS   CLEAR     68  58  70 N3        30.17S
IONIA          FAIR      66  57  71 CALM      30.17R
KALAMAZOO      CLOUDY    71  60  68 N3        30.16S
LUDINGTON      PTCLDY    58  58 100 CALM      30.17S
MARSHALL       CLOUDY    70  68  94 CALM      30.16S
MOUNT PLEASANT CLEAR     64  61  91 CALM      30.16F
MUSKEGON       MOCLDY    65  59  81 N5        30.16F
SOUTH HAVEN    MOCLDY    66  61  84 NE3       30.15S
$$
MIZ016>042-270400-
NORTHERN LOWER MICHIGAN

CITY           SKY/WX    TMP DP  RH WIND       PRES   REMARKS
ALPENA         MOCLDY    63  58  83 CALM      30.17S
BEAVER ISLAND  CLOUDY    60  59  96 CALM      30.17R
BELLAIRE       PTCLDY    58  56  94 CALM      30.17S
CADILLAC       CLEAR     56  53  89 CALM      30.19R
CHARLEVOIX     PTCLDY    61  59  92 CALM      30.19S
FRANKFORT      PTCLDY    60  57  88 CALM      30.17R
GAYLORD        PTCLDY    61  55  81 CALM      30.19R
GRAYLING       CLEAR     58  56  94 CALM      30.20R
HARBOR SPRINGS MOCLDY    60  58  93 N3        30.17R
HOUGHTON LAKE  CLOUDY    58  55  90 CALM      30.20R
MANISTEE       CLEAR     57  56  96 CALM      30.17R
OSCODA         CLEAR     66  64  93 NE6       30.16R
PELLSTON       CLOUDY    58  55  90 CALM      30.17R
ROGERS CITY    MOCLDY    62  58  88 CALM      30.18S
TRAVERSE CITY  MOCLDY    63  57  81 CALM      30.16S
$$
MIZ007>008-015-270400-
EASTERN UPPER MICHIGAN

CITY           SKY/WX    TMP DP  RH WIND       PRES   REMARKS
KINROSS        CLOUDY    59  55  87 CALM      30.18R
MACKINAC ISLAN CLOUDY    62  54  74 NE8       30.17R
NEWBERRY       PTCLDY    56  55  97 CALM      30.17S
S. S. MARIE    PTCLDY    60  54  80 CALM      30.17R
MUNISING         N/A     57  56  96 S5        30.16S
$$
MIZ004>006-011>014-085-270400-
CENTRAL UPPER MICHIGAN

CITY           SKY/WX    TMP DP  RH WIND       PRES   REMARKS
MANISTIQUE     CLOUDY    62  57  86 N3        30.17R
ESCANABA       CLOUDY    65  59  81 NE3       30.16R
MENOMINEE      CLOUDY   N/A N/A N/A CALM      30.16R
SAWYER-GWINN   PTCLDY    57  55  90 CALM      30.18S
$$
MIZ001>003-009>011-084-270400-
WESTERN UPPER MICHIGAN

CITY           SKY/WX    TMP DP  RH WIND       PRES   REMARKS
IRON MOUNTAIN  PTCLDY    57  54  89 CALM      30.16R
HOUGHTON       PTCLDY    50  48  93 NW3       30.14F
COPPER HARBOR    N/A     56  54  93 SW5       30.15R
IRONWOOD       CLOUDY    53  52  96 E3        30.16
$$

ABBREVIATIONS USED IN REMARKS
   TC - TEMPERATURE IN CELSIUS
  WCI - WIND CHILL INDEX
   HX - HEAT INDEX
  VSB - VISIBILITY





USA.gov is the U.S. government's official web portal to all federal, state and local government web resources and services.